Regional Weather Roundup
Issued by NWS

Home | Current Version | Previous Version | Text Only | Print | Product List | Glossary On
Versions: 1 2 3 4 5 6 7 8 9 10 11 12 13 14 15 16 17 18 19 20 21 22 23 24 25 26 27 28 29 30 31 32 33 34 35 36 37 38 39 40 41 42 43 44 45 46 47 48 49 50
000
ASUS44 KMEG 091410
RWRTN
TENNESSEE HOURLY STATE WEATHER ROUNDUP
NATIONAL WEATHER SERVICE MEMPHIS TN
800 AM CST THU DEC 09 2021

TNZ002-004-019-021-049-052-054-088>092-091500-
WEST TENNESSEE

CITY           SKY/WX    TMP DP  RH WIND       PRES   REMARKS
MEMPHIS INTL   CLOUDY    48  38  68 S8        29.96R
NWS MEMPHIS      N/A     46 N/A N/A MISG        N/A
JACKSON        PTSUNNY   45  34  65 S8        29.98R
DYERSBURG      PTCLDY    43  33  68 S8        29.96R
SOMERVILLE     SUNNY     45  36  70 S10G24    29.94R
COVINGTON      SUNNY     46  37  71 S9G20     29.97R
UNION CITY     CLEAR     43  34  70 S5        29.95R
BOLIVAR        SUNNY     43  36  75 S13G20    29.94F
PARIS          SUNNY     41  28  60 S10       29.96R
HUNTINGDON     SUNNY     41  30  65 S6        29.96R
LEXINGTON      SUNNY     39  28  65 S7G14     29.94F WCI  34
SELMER         SUNNY     41  30  65 S12G18    29.98F
SAVANNAH       SUNNY     43  32  65 S10       30.00F
$$

TNZ008-025-027-028-033-062-065-066-091500-
NORTH MIDDLE TENNESSEE

CITY           SKY/WX    TMP DP  RH WIND       PRES   REMARKS
NASHVILLE      CLOUDY    39  27  62 SE7       30.04F WCI  34
DICKSON        SUNNY     43  23  45 S12G17    29.95F
PORTLAND       SUNNY     39  25  56 S9        30.00F WCI  33
CLARKSVILLE    PTSUNNY   39  26  59 SE9       29.97F WCI  33
LEBANON        SUNNY     36  30  80 CALM      30.04S
SMYRNA         PTSUNNY   35  29  78 SE3       30.07F
MURFREESBORO   SUNNY     37  28  70 E5        30.04F WCI  34
COOKEVILLE     SUNNY     41  27  56 S6        30.06F
GALLATIN       SUNNY     36  30  80 CALM      30.08F
CROSSVILLE     PTSUNNY   37  23  56 CALM      30.09R
ROCKWOOD       SUNNY     37  23  56 CALM      30.12R
$$

TNZ061-075-076-078-094-096-097-091500-
SOUTH MIDDLE TENNESSEE

CITY           SKY/WX    TMP DP  RH WIND       PRES   REMARKS
LAWRENCEBURG   SUNNY     41  28  60 SE7       30.04S
LEWISBURG      SUNNY     32  30  93 CALM      30.04F
TULLAHOMA      SUNNY     41  27  56 S5        30.06F
WINCHESTER     SUNNY     41  28  60 SE6       30.07S
MCMINNVILLE    SUNNY     34  30  86 CALM      30.06S
COLUMBIA       SUNNY     34  34 100 CALM      30.01F FOG
SHELBYVILLE    SUNNY     39  28  65 SE6       30.05F WCI  35
$$

TNZ017-018-042-046-047-091500-
NORTHEAST TENNESSEE

CITY           SKY/WX    TMP DP  RH WIND       PRES   REMARKS
TRI CITIES     CLOUDY    30  27  88 CALM      30.16R
ELIZABETHTON   SUNNY     34  27  75 CALM      30.16R
GREENEVILLE    SUNNY     34  28  80 CALM      30.14S
$$

TNZ012-013-036-069-073-074-091500-
CENTRAL EAST TENNESSEE

CITY           SKY/WX    TMP DP  RH WIND       PRES   REMARKS
KNOXVILLE      CLOUDY    33  32  96 N5        30.14F WCI  29
OAK RIDGE      PTSUNNY   32  30  92 CALM      30.16S
DOWNTOWN KNOXV SUNNY     32  32 100 CALM      30.16S
GATLINBURG     SUNNY     30  30 100 E5        30.14F WCI  25
MORRISTOWN     SUNNY     32  30  93 E7        30.12F WCI  26
JACKSBORO      SUNNY     28  27  93 CALM      30.20R
ONEIDA         SUNNY     34  27  75 CALM      30.08S
$$

TNZ083-085-099-091500-
SOUTHEAST TENNESSEE

CITY           SKY/WX    TMP DP  RH WIND       PRES   REMARKS
CHATTANOOGA    PTSUNNY   35  31  85 SE3       30.15F
DAYTON         SUNNY     32  32 100 CALM      30.14R
$$

SKY/WX REPORTED AS FAIR MEANS FEW OR NO CLOUDS BELOW
12 THOUSAND FEET.




USA.gov is the U.S. government's official web portal to all federal, state and local government web resources and services.